Location: *
(2.5500°S, 65.9667°W)
Time: 05:58:52
(UTC+00:00)

Explorer 7 - Pass Details

Date: 22 April 2024
Orbit: 467 x 625 km, 50.3° (Epoch: 26 May)

Event Time Altitude Azimuth Distance (km) Brightness Sun altitude
Rises 11:09:29 0° 211° (SSW) 2,668 9.9 10.9°
Reaches altitude 10° 11:11:40 10° 208° (SSW) 1,803 9.1 11.5°
Maximum altitude 11:15:44 62° 126° (SE) 632 7.6 12.5°
Drops below altitude 10° 11:20:02 10° 46° (NE) 1,895 10.8 13.5°
Sets 11:22:22 0° 42° (NE) 2,818 11.4 14.1°
